Location: East Arcadia
(34.1056°N, 118.0176°W)
Time: 00:24:31
(UTC+00:00)

Cosmos 1633 Rocket - Pass Details

Date: 01 April 2023
Orbit: 605 x 622 km, 82.5° (Epoch: 08 June)

Event Time Altitude Azimuth Distance (km) Brightness Sun altitude
Rises 12:17:35 0° 354° (N) 2,903 6.7 -17.4°
Reaches altitude 10° 12:19:50 10° 356° (N) 1,991 5.8 -17.0°
Maximum altitude 12:24:15 81° 83° (E) 630 3.1 -16.1°
Drops below altitude 10° 12:28:37 10° 171° (S) 1,967 5.6 -15.2°
Sets 12:30:49 0° 173° (S) 2,865 6.4 -14.8°
